Flag for Japan Weather past 2 weeks in Sapporo, Japan

Now
63 °F

Partly sunny.


Feels Like: 63 °F
Forecast: 44 / 54 °F
Wind: 16 mph from South

Location: Chitose Ab

Current Time: Oct 20, 2014 at 2:25:45 PM

Latest Report: Oct 20, 2014 at 12:00 PM


Visibility: N/A

Pressure: 30.07 "Hg

Humidity: 64%

Dew point: 50 °F

Location of SapporoLocation

Historic Weather in Sapporo — Graph

°F

Sapporo temperature yesterday

Maximum temperature yesterday: 61 °F (at 11:00 AM)
Minimum temperature yesterday: 28 °F (at 6:00 AM)
Average temperature yesterday: 48 °F

Past Weeks' High & Low Weather Summary

 TemperatureHumidityPressure
High64 °F (Oct 8, 1:00 PM)100% (Oct 9, 12:30 AM)30.33 "Hg (Oct 9, 12:30 AM)
Low28 °F (Oct 19, 6:00 AM)34% (Oct 7, 1:00 PM)29.59 "Hg (Oct 14, 12:30 PM)
Average50 °F72%30.04 "Hg
* Reported Oct 5 12:00 Noon — Oct 20 12:00 Noon, Sapporo, Weather by CustomWeather, © 2014

Note: Actual official high and low records may vary slightly from our data, if they occured in-between our weather recording intervals... More about our weather records

Advertising

Sapporo weather history for previous 24 hours

 ConditionsComfort  
Time TempWeatherWind HumidityBarometerVisibility
12:00 PM
Oct 20
63 °FPartly sunny.16 mph64%30.07 "HgN/A
11:30 AM63 °FPartly sunny.15 mph64%30.07 "HgN/A
11:00 AM63 °FPartly sunny.12 mph68%30.07 "HgN/A
10:30 AM61 °FPartly sunny.12 mph72%30.09 "HgN/A
10:00 AM61 °FPartly sunny.10 mph68%30.09 "HgN/A
9:30 AM61 °FPartly sunny.10 mph72%30.09 "HgN/A
9:00 AM59 °FPartly sunny.12 mph77%30.09 "HgN/A
8:30 AM57 °FBroken clouds.9 mph82%30.12 "HgN/A
8:00 AM54 °FPartly sunny.8 mph88%30.12 "HgN/A
7:30 AM52 °FPartly sunny.6 mph94%30.12 "HgN/A
7:00 AM50 °FPartly sunny.6 mph94%30.12 "HgN/A
6:30 AM50 °FPartly sunny.8 mph94%30.12 "HgN/A
6:00 AM50 °FBroken clouds.7 mph94%30.12 "HgN/A
5:30 AM48 °FPartly cloudy.5 mph94%30.12 "HgN/A
5:00 AM48 °FPassing clouds.7 mph94%30.12 "HgN/A
4:30 AM46 °FPassing clouds.9 mph93%30.12 "HgN/A
4:00 AM45 °FPassing clouds.6 mph93%30.15 "HgN/A
3:30 AM45 °FPassing clouds.2 mph100%30.15 "HgN/A
3:00 AM48 °FPassing clouds.7 mph94%30.15 "HgN/A
2:30 AM45 °FPassing clouds.6 mph93%30.15 "HgN/A
2:00 AM45 °FPassing clouds.5 mph93%30.15 "HgN/A
1:30 AM46 °FPassing clouds.6 mph93%30.18 "HgN/A
1:00 AM46 °FPassing clouds.6 mph93%30.18 "HgN/A
12:30 AM46 °FPassing clouds.5 mph100%30.18 "HgN/A
12:00 AM48 °FPassing clouds.3 mph94%30.18 "HgN/A
11:30 PM
Oct 19
46 °FPassing clouds.6 mph93%30.18 "HgN/A
11:00 PM48 °FPassing clouds.8 mph94%30.18 "HgN/A
10:30 PM48 °FPassing clouds.7 mph94%30.21 "HgN/A
10:00 PM52 °FPassing clouds.9 mph88%30.21 "HgN/A
9:30 PM52 °FPassing clouds.8 mph88%30.21 "HgN/A
9:00 PM54 °FPassing clouds.9 mph88%30.21 "HgN/A
8:30 PM54 °FPassing clouds.12 mph88%30.21 "HgN/A
8:00 PM54 °FPassing clouds.10 mph82%30.21 "HgN/A
7:30 PM54 °FPassing clouds.9 mph77%30.21 "HgN/A
7:00 PM54 °FPassing clouds.7 mph77%30.21 "HgN/A
6:30 PM54 °FPassing clouds.10 mph77%30.21 "HgN/A
6:00 PM55 °FPassing clouds.9 mph67%30.24 "HgN/A
5:30 PM57 °FPassing clouds.13 mph72%30.24 "HgN/A
5:00 PM55 °FPassing clouds.8 mph72%30.24 "HgN/A
4:30 PM57 °FPassing clouds.9 mph63%30.21 "HgN/A
4:00 PM59 °FPassing clouds.12 mph55%30.24 "HgN/A
3:30 PM59 °FPassing clouds.17 mph51%30.21 "HgN/A
3:00 PM61 °FPassing clouds.16 mph39%30.21 "HgN/A
2:30 PM61 °FPassing clouds.16 mph36%30.21 "HgN/A
2:00 PM61 °FPassing clouds.16 mph39%30.24 "HgN/A
Weather by CustomWeather, © 2014

See weather overviewHow to use our weather pages